TimeEST,TemperatureF,Dew PointF,Humidity,Sea Level PressureIn,VisibilityMPH,Wind Direction,Wind SpeedMPH,Gust SpeedMPH,PrecipitationIn,Events,Conditions,WindDirDegrees,DateUTC
12:56 AM,34.9,29.1,79,29.98,10.0,SW,9.2,-,N/A,,Overcast,230,2011-11-12 05:56:00
1:56 AM,36.0,29.1,76,29.98,10.0,SSW,6.9,-,N/A,,Overcast,200,2011-11-12 06:56:00
2:56 AM,36.0,27.1,70,29.99,10.0,SW,10.4,-,N/A,,Overcast,220,2011-11-12 07:56:00
3:56 AM,34.0,25.2,70,29.98,10.0,SSW,5.8,-,N/A,,Clear,210,2011-11-12 08:56:00
4:56 AM,32.9,24.1,70,29.97,10.0,South,6.9,-,N/A,,Mostly Cloudy,170,2011-11-12 09:56:00
5:56 AM,32.9,24.1,70,29.97,10.0,SSE,10.4,-,N/A,,Mostly Cloudy,150,2011-11-12 10:56:00
6:28 AM,32.0,24.8,75,29.93,10.0,SE,11.5,-,N/A,,Mostly Cloudy,140,2011-11-12 11:28:00
6:56 AM,32.0,24.1,73,29.97,10.0,SSE,10.4,-,N/A,,Scattered Clouds,150,2011-11-12 11:56:00
8:56 AM,37.9,26.1,62,29.97,10.0,SSE,10.4,-,N/A,,Clear,160,2011-11-12 13:56:00
9:56 AM,41.9,26.1,53,29.98,10.0,South,10.4,-,N/A,,Clear,180,2011-11-12 14:56:00
10:56 AM,45.9,27.1,48,29.96,10.0,South,12.7,-,N/A,,Clear,190,2011-11-12 15:56:00
11:56 AM,50.0,28.0,43,29.94,10.0,SSW,10.4,-,N/A,,Clear,210,2011-11-12 16:56:00
12:56 PM,52.0,29.1,41,29.94,10.0,SSW,13.8,-,N/A,,Clear,200,2011-11-12 17:56:00
1:56 PM,52.9,30.0,42,29.94,10.0,SSW,11.5,19.6,N/A,,Clear,210,2011-11-12 18:56:00
2:56 PM,54.9,31.1,40,29.95,10.0,SSW,11.5,-,N/A,,Clear,210,2011-11-12 19:56:00
3:56 PM,54.0,31.1,42,29.97,10.0,SSW,9.2,-,N/A,,Clear,210,2011-11-12 20:56:00
4:56 PM,50.0,30.0,46,29.99,10.0,SSW,9.2,-,N/A,,Clear,200,2011-11-12 21:56:00
6:56 PM,45.0,31.1,58,30.03,10.0,SSE,5.8,-,N/A,,Clear,160,2011-11-12 23:56:00
7:56 PM,45.9,30.0,54,30.03,10.0,SSE,6.9,-,N/A,,Clear,160,2011-11-13 00:56:00
8:56 PM,45.0,31.1,58,30.03,10.0,SSE,6.9,-,N/A,,Clear,160,2011-11-13 01:56:00
10:56 PM,43.9,31.1,61,30.04,10.0,SSE,8.1,-,N/A,,Clear,160,2011-11-13 03:56:00
11:56 PM,43.9,31.1,61,30.04,10.0,SSE,8.1,-,N/A,,Clear,160,2011-11-13 04:56:00